Location: Gleizolles
(44.4833°N, 6.7667°E)
Time: 14:12:40
(UTC+00:00)

Vanguard 1 - Pass Details

Date: 25 June 2024
Orbit: 650 x 3826 km, 34.3° (Epoch: 15 July)

Event Time Altitude Azimuth Distance (km) Brightness Sun altitude
Rises 13:48:59 0° 261° (W) 3,935 13.7 55.6°
Reaches altitude 10° 13:52:38 10° 248° (WSW) 2,592 13.0 55.0°
Maximum altitude 13:57:02 23° 197° (SSW) 1,527 11.8 54.3°
Drops below altitude 10° 14:00:38 10° 143° (SE) 2,069 11.8 53.7°
Sets 14:03:10 0° 128° (SE) 2,951 12.4 53.3°
